sat.trackr.live / text

‹ back to catalog

STARLINK-6209

NORAD 56877 · 2023-083B

PAYLOAD ACTIVE UNKNOWN

§ Identity

Operator
Country
US
Launch date
2023-06-12
Launch site
AFETR
Launch vehicle
Mass (kg)
RCS (m²)

Purposes: comms

External: N2YO · Heavens-Above · Gunter

§ Orbital elements

Epoch: 2026-09-20T17:34:52.946400Z

Period
94.27 min
Inclination
43.0029°
Eccentricity
0.0001933
Mean motion
15.27570768 rev/d
Perigee alt
481.8 km
Apogee alt
484.4 km
Semi-major
6,861.2 km
B*
3.3629e-5
RAAN
63.3554°
Arg perigee
249.3340°
Mean anomaly
110.7305°
Rev number
18,146

§ Raw data

STARLINK-62091 56877U 23083B   26263.73255725  .00000663  00000+0  33629-4 0  99952 56877  43.0029  63.3554 0001933 249.3340 110.7305 15.27570768181465

JSON: /api/v1/satellites/56877 · /tle

For live sub-satellite position, see the globe view (requires WebGL).

§ Visibility from observer

Set your observer location to see the next 7 days of passes ≥ 10°. The values pass through the URL so the page stays shareable.

No JS? Fill the form by hand. The geolocation button needs JavaScript.